Location: ??? ????
(33.4119°N, 35.7263°E)
Time: 13:10:40
(UTC+00:00)

Daily predictions for brighter satellites

Satellite Brightness Start Highest point End
(mag) Time Altitude Azimuth Time Altitude Azimuth Time Altitude Azimuth
NOSS 3-1 (C) 4.4 15:20:48 10° NNW 15:28:21 49° NE 15:36:52 10° SE
MOS 1 Rocket 3.4 15:26:28 10° NNE 15:30:37 47° E 15:34:53 10° S
Cosmos 1937 Rocket 3.6 15:26:53 10° SSW 15:32:11 87° WNW 15:37:31 10° NNE
CZ-4B R/B 1.2 15:31:38 10° NNE 15:34:53 82° ESE 15:38:01 10° S
Cosmos 1758 Rocket 3.9 15:31:48 10° SSE 15:36:01 45° E 15:40:18 10° NNE
Cosmos-2242 4.2 15:33:07 10° NNE 15:36:27 22° ENE 15:39:48 10° SE
Aureole 3 3.0 15:36:43 10° NNW 15:39:40 67° W 15:42:43 10° S
COSMO-SKYMED 1 2.5 15:35:43 10° NNE 15:40:04 82° ESE 15:44:24 10° S
H-2A R/B 2.9 15:39:44 10° ESE 15:43:49 26° ENE 15:48:00 10° NNE
Cosmos 2026 Rocket 3.9 15:40:15 10° S 15:46:19 74° E 15:52:31 10° N
Cosmos 1833 Rocket 3.4 15:42:33 10° N 15:47:27 30° ENE 15:52:21 10° ESE
Feng Yun 1-1 Rocket 4.2 15:43:49 10° SSE 15:49:11 67° ENE 15:54:43 10° N
USA 229 DEB 4.2 15:42:32 10° NNW 15:49:38 46° NE 15:57:00 10° SE
USA 229 4.2 15:42:39 10° NNW 15:49:44 46° NE 15:57:06 10° SE
Cosmos 1939 Rocket 3.0 15:46:39 10° S 15:50:45 82° WSW 15:54:48 10° NNW
Helios 1A Rocket 4.2 15:47:53 10° ESE 15:50:52 20° ENE 15:53:51 10° NNE
Lacrosse 5 3.7 15:47:26 10° WNW 15:52:00 35° WSW 15:56:31 10° S
USA 276 2.9 15:49:15 10° SSW 15:52:13 37° SE 15:54:17 17° ENE
USA 290 3.5 15:49:59 10° NNE 15:52:25 20° ENE 15:54:52 10° ESE
Cosmos 1602 Rocket 4.4 15:48:38 10° SSW 15:52:53 53° W 15:57:10 10° N
YAOGAN 1 3.1 15:54:56 10° SE 15:58:49 34° ENE 16:02:44 10° N
ATLAS 3B CENTAUR R/B 4.1 15:59:36 10° S 15:59:51 10° S 16:00:06 10° SSE
Aureole 3 Rocket 2.9 15:56:21 10° N 15:59:53 60° E 16:04:34 10° SSE
Cosmos 1943 Rocket 3.8 15:57:46 10° SE 16:00:04 13° E 16:00:04 13° E
Cosmos 2112 Rocket 4.2 15:56:20 10° NNW 16:01:32 76° WSW 16:06:41 10° S
Cosmos 1553 Rocket 4.4 15:55:42 10° N 16:01:39 41° E 16:07:29 10° SSE
IRS-1C Rocket 4.0 15:59:11 10° SSE 16:04:22 67° ENE 16:09:35 10° N
Milstar 3 4.3 15:55:09 10° SW 16:05:09 35° SSE 16:10:49 14° ESE
NOSS 3-1 (A) 4.3 15:57:50 10° NNW 16:05:30 52° NE 16:14:06 10° SE
COSMOS 2406 3.3 16:00:56 10° N 16:06:35 53° ENE 16:12:08 10° SE
Cosmos 2082 Rocket 3.2 16:02:31 10° N 16:07:03 24° ENE 16:09:39 18° E
Cosmos 1825 Rocket 3.4 16:03:33 10° S 16:07:54 79° E 16:12:19 10° N
ASTRO E2 3.8 16:07:02 10° SW 16:10:34 31° SSE 16:12:35 20° ESE
Cosmos 1689 Rocket 1.9 16:10:12 10° N 16:13:02 86° WNW 16:15:52 10° SSW
Okean O Rocket 4.1 16:10:19 10° SSW 16:13:58 25° W 16:17:38 10° NW
CSL-04 Rocket 4.2 16:13:26 10° SE 16:18:19 36° ENE 16:23:17 10° N
Cosmos 1812 Rocket 4.4 16:14:36 10° NNW 16:18:50 52° W 16:23:01 10° S
X-37B 2.6 16:17:15 10° NNW 16:19:18 17° NNE 16:19:18 17° NNE
CZ-4 R/B 1.2 16:15:33 10° SSE 16:19:37 75° ENE 16:23:36 10° N
Delta 2 Rocket 4.2 16:19:54 10° SSW 16:22:44 25° SSE 16:23:18 24° SE
Cosmos 1655 Rocket 4.1 16:17:06 10° SSE 16:23:06 53° E 16:29:06 10° NNE
Iridium 4 Rocket 3.7 16:19:23 10° N 16:24:33 68° W 16:29:12 10° S
Okean-O 2.5 16:21:05 10° SSE 16:25:29 75° ENE 16:29:56 10° N
Cosmos 2278 Rocket 3.4 16:21:40 10° SW 16:27:01 42° WNW 16:32:24 10° N
S3M 4.2 16:22:15 10° N 16:28:05 45° E 16:33:55 10° SSE
CZ-2C R/B 3.8 16:25:09 10° S 16:30:25 58° W 16:35:59 10° NNW
ERS-2 3.6 16:27:13 10° N 16:30:34 36° WNW 16:33:55 10° SW
Cosmos 1346 Rocket 4.1 16:29:01 10° SSW 16:32:44 41° W 16:36:28 10° N
Cosmos 2292 Rocket 3.7 16:27:21 10° S 16:32:58 82° E 16:37:08 10° N
Cosmos 1953 Rocket 3.6 16:30:01 10° S 16:34:21 79° W 16:38:42 10° N
Cosmos 1408 4.2 16:37:14 10° SSE 16:38:35 21° SSE 16:38:35 21° SSE
Cosmos 44 Rocket 3.9 16:36:00 10° SW 16:40:44 54° WNW 16:44:33 16° NNE
Cosmos 1892 2.4 16:37:54 10° S 16:41:37 76° E 16:42:19 56° NNE
ARGOS 3.0 16:38:13 10° SSE 16:43:33 71° ENE 16:48:54 10° N
Lacrosse 5 rocket 3.1 16:46:29 10° S 16:48:44 22° SSE 16:48:44 22° SSE
CZ-2C R/B 2.8 16:54:52 10° N 17:00:30 81° WNW 17:06:06 10° SSW
DMSP B5D2-2 3.9 17:05:06 63° NE 17:05:54 78° ESE 17:11:10 10° S
Cosmos 2297 3.7 17:01:43 10° SSW 17:07:23 82° WNW 17:09:22 43° NNE
Cosmos 1048 Rocket 4.5 17:05:34 10° NNW 17:09:14 46° N 17:09:14 46° N
Sakura Rocket 4.1 17:09:25 10° W 17:17:02 58° S 17:17:42 55° SSE
H-2A R/B 3.8 17:18:44 10° SSW 17:23:04 29° W 17:27:31 10° NW
Cosmos 1833 Rocket 4.4 17:26:26 10° NW 17:31:14 30° WSW 17:36:03 10° SSW
USA 267 3.3 17:32:30 64° SSE 17:32:30 64° SSE 17:38:18 10° SW
CZ-3B R/B 3.9 17:36:11 10° NW 17:41:01 74° SW 18:04:20 10° SSE
Cosmos 1943 Rocket 3.0 17:37:47 10° SSW 17:41:41 45° SW 17:41:41 45° SW
Cosmos 2082 Rocket 3.3 17:45:57 10° NW 17:51:14 40° WSW 17:51:40 39° WSW
Cosmos 2369 Rocket 4.5 17:54:03 10° SSW 17:54:52 14° SSW 17:54:52 14° SSW
ATLAS 2A CENTAUR R/B 4.1 17:43:26 10° WSW 18:11:52 52° S 18:12:01 52° S
